Regional Weather Roundup
Issued by NWS Goodland, KS

Home | Current Version | Previous Version | Text Only | Print | Product List | Glossary On
Versions: 1 2 3 4 5 6 7 8 9 10 11 12 13 14 15 16 17 18 19 20 21 22 23 24 25 26 27 28 29 30 31 32 33 34 35 36 37 38 39 40 41 42 43 44 45 46 47 48 49 50
000
ASUS43 KGLD 242008
RWRGLD

GOODLAND FORECAST AREA HOURLY WEATHER ROUNDUP
NATIONAL WEATHER SERVICE GOODLAND KS
200 PM MDT THU JUL 24 2014

...OFFICIAL OBSERVATIONS...

CITY           SKY/WX    TMP DP  RH WIND       PRES   REMARKS
GOODLAND KS    SUNNY     99  45  15 S22G35    29.97F
HILL CITY KS     N/A     99  67  35 S17G26    29.93F HX 103
IMPERIAL NEB   SUNNY    104  45  13 SW15G22   29.90F HX 100
MCCOOK NEB     SUNNY    100  64  30 S20G26    29.89F HX 102
AKRON CO       SUNNY    100  41  13 NW9       30.00F
BURLINGTON CO  SUNNY     99  40  13 S22G28    30.01F
LIMON CO       MOSUNNY   95  47  19 S17G26    30.07F
$$

...UNOFFICIAL OBSERVATIONS...

CITY           SKY/WX    TMP DP  RH WIND       PRES   REMARKS
COLBY KS       SUNNY    100  54  20 S17G32    29.96F
GOVE KS          N/A     99  32   9 MISG        N/A
LENORA KS        N/A     95  32  11 MISG        N/A
NORTON KS      SUNNY     99  61  28 SE17G26   29.91F
OBERLIN KS     FAIR     102  54  19 S17G28    29.91F HX 100
SHARON SPRINGS   N/A    101  51  18 S23G35      N/A
ST FRANCIS KS  SUNNY    100  28   8 S24G33    29.92
TRIBUNE KS     SUNNY    100 N/A N/A S26G32    30.00F
TRENTON NEB      N/A    100  32   9 SW16        N/A
KIT CARSON CO    N/A    100  44  14 N12G23      N/A
YUMA CO          N/A     96  51  21 S8G17       N/A
$$



USA.gov is the U.S. government's official web portal to all federal, state and local government web resources and services.